Regional Weather Roundup
Issued by NWS

Home | Current Version | Previous Version | Graphics & Text | Print | Product List | Glossary On
Versions: 1 2 3 4 5 6 7 8 9 10 11 12 13 14 15 16 17 18 19 20 21 22 23 24 25 26 27 28 29 30 31 32 33 34 35 36 37 38 39 40 41 42 43 44 45 46 47 48 49 50
000
ASUS45 KSLC 291910
RWRUT

UTAH REGIONAL WEATHER ROUNDUP
NATIONAL WEATHER SERVICE SALT LAKE CITY UT
100 PM MDT TUE JUL 29 2014

UTZ001>011-023>025-292000-

NORTHERN UTAH

CITY           SKY/WX    TMP DP  RH WIND       PRES   REMARKS
HILL AFB       MOSUNNY   67  62  84 E6        30.24R
LOGAN          LGT RAIN  66  61  84 N5        30.23S
OGDEN          LGT RAIN  68  61  78 W3        30.22R
PROVO AIRPORT  PTSUNNY   70  61  73 W12       30.21R
SALT LAKE CITY TSTM      71  60  68 N5        30.20R
VERNAL         CLOUDY    73  59  61 E9        30.24F
WENDOVER       CLOUDY    73  57  56 SE9       30.21F
HEBER CITY     PTSUNNY   73  55  53 NE3       30.23S
WEST JORDAN    CLOUDY    68  68 100 NW10      30.23R

$$

UTZ012>022-026-027-292000-

SOUTHERN UTAH

CITY           SKY/WX    TMP DP  RH WIND       PRES   REMARKS
BRYCE CANYON   CLOUDY    63  55  75 E9        30.42S
CEDAR CITY     TSTM      67  56  67 W16G32    30.26R
MILFORD        PTSUNNY   75  54  47 NW22G37   30.19S THUNDER
MOAB/CYNLANDS  SUNNY     79  60  52 VRB3      30.17F
PRICE          CLOUDY    72  54  53 CALM      30.27F
ST GEORGE      MOCLDY    91  54  27 NW9       30.08F
KANAB          PTSUNNY   82  52  34 S16G26    30.24F

$$

REGIONAL REPORTS     COLORADO/ARIZONA

CITY           SKY/WX    TMP DP  RH WIND       PRES   REMARKS
CRAIG, CO      LGT RAIN  58  58 100 SW7       30.34F
GRAND JUNCTION PTSUNNY   73  58  59 SW3       30.23F
RIFLE          CLOUDY    66  60  81 NE5       30.31F
MONTROSE       MOSUNNY   73  59  61 CALM      30.30F
CORTEZ         SUNNY     79  55  43 SW9       30.29F
PAGE, AZ       SUNNY     90  50  25 VRB5      30.15F
GRAND CANYON   PTSUNNY   78  48  34 W10G22    30.36F
KINGMAN        MOSUNNY   93  50  23 SW9G20    30.13F HX  90
FLAGSTAFF      MOSUNNY   77  48  35 SW13G21   30.39F

$$

REGIONAL REPORTS    NEVADA/IDAHO/WYOMING

CITY           SKY/WX    TMP DP  RH WIND       PRES   REMARKS
LAS VEGAS, NV  MOSUNNY   94  57  28 CALM      30.00F HX  92
ELY            CLOUDY    70  51  51 NW10      30.34F
ELKO           MOSUNNY   84  47  27 E8        30.21F
POCATELLO, ID  CLOUDY    71  62  73 N6        30.23S
BURLEY         PTSUNNY   79  55  43 E9        30.17F
EVANSTON, WY   RAIN      58  56  93 N3        30.38S FOG
ROCK SPRINGS   LGT RAIN  66  52  60 E20       30.35S

$$


USA.gov is the U.S. government's official web portal to all federal, state and local government web resources and services.